Location: Rounton
(54.4000°N, 1.3500°W)
Time: 12:41:31
(UTC+00:00)

Envisat - Pass Details

Date: 26 September 2023
Orbit: 762 x 764 km, 98.3° (Epoch: 30 November)

Event Time Altitude Azimuth Distance (km) Brightness Sun altitude
Rises 04:46:13 0° 16° (NNE) 3,247 6.9 -19.3°
Reaches altitude 10° 04:48:33 10° 20° (NNE) 2,316 6.1 -19.0°
Maximum altitude 04:53:38 65° 102° (ESE) 841 3.3 -18.3°
Drops below altitude 10° 04:58:41 10° 185° (S) 2,299 5.2 -17.6°
Enters shadow 04:59:12 - 186° (S) 2,504 5.4 -17.6°
